Regional Weather Roundup
Issued by NWS

Home | Current Version | Previous Version | Text Only | Print | Product List | Glossary Off
Versions: 1 2 3 4 5 6 7 8 9 10 11 12 13 14 15 16 17 18 19 20 21 22 23 24 25 26 27 28 29 30 31 32 33 34 35 36 37 38 39 40 41 42 43 44 45 46 47 48 49 50

000
ASUS43 KMPX 191401
RWRMN
WEATHER ROUNDUP FOR MINNESOTA
NATIONAL WEATHER SERVICE TWIN CITIES/CHANHASSEN MN
800 AM CST FRI JAN 19 2018


NOTE: "FAIR" INDICATES FEW OR NO CLOUDS BELOW 12,000 FEET WITH NO
SIGNIFICANT WEATHER AND/OR OBSTRUCTIONS TO VISIBILITY. N/A MEANS
CURRENT SKY AND/OR WEATHER CONDITIONS ARE NOT AVAILABLE.

MNZ060>063-068>070-191500-
   Twin Cities Metro

CITY           SKY/WX    TMP DP  RH WIND       PRES   REMARKS
TWIN CITIES    CLOUDY    29  25  85 SE6       29.60F WCI  23
ST PAUL        FAIR      28  24  85 SE8       29.61F WCI  20
CRYSTAL        FAIR      31  23  72 S8        29.57F WCI  23
BLAINE         CLOUDY    32  27  80 S7        29.57F WCI  26
LAKEVILLE      FAIR      28  25  86 S9        29.60F WCI  20
EDEN PRAIRIE   FAIR      30  24  78 SW5       29.58F WCI  25
SOUTH ST PAUL  FAIR      29  24  81 S3        29.60F
LAKE ELMO      FAIR      30  27  86 S7        29.60F WCI  23
$$
MNZ001>005-007-008-013>017-022>024-027-028-191500-
   Northwest Minnesota

CITY           SKY/WX    TMP DP  RH WIND       PRES   REMARKS
BEMIDJI        FAIR      34  26  74 SW5       29.43F WCI  29
HALLOCK        CLOUDY    30  28  93 S10       29.38F WCI  21
ROSEAU         CLOUDY    36  30  80 SW13      29.36F
WARROAD        FAIR      36  30  80 SW10      29.35F
CROOKSTON      FAIR      28  25  86 S10       29.44F WCI  19
FOSSTON        FAIR      28  23  80 S8        29.46S WCI  20
DETROIT LAKES  FAIR      32  27  80 S3        29.48F
MOORHEAD       FAIR      27  21  80 S6        29.51S WCI  20
PARK RAPIDS    FAIR      29  23  78 CALM      29.46F
MAHNOMEN       FAIR      29  25  84 S8        29.46F WCI  21
$$
MNZ006-009>011-018-025>026-191500-
   North Central Minnesota

CITY           SKY/WX    TMP DP  RH WIND       PRES   REMARKS
BAUDETTE       FAIR      35  28  75 SW10      29.34F WCI  27
FLAG ISLAND    FAIR      34  27  75 SW9       29.29F WCI  26
INTL FALLS     FAIR      32  25  75 SW8       29.38F WCI  25
WASKISH        FAIR      37  28  70 SW9       29.40F
BIG FORK       FAIR      34  27  75 SW6       29.42F WCI  29
LONGVILLE      FAIR      30  25  80 CALM      29.47F
GRAND RAPIDS   FAIR      30  25  81 S7        29.47F WCI  23
CRANE LAKE     FAIR      30  27  86 CALM      29.42S
ORR            FAIR      30  21  69 S3        29.39F
COOK           MOCLDY    32  25  74 SW5       29.42F WCI  27
WALKER         FAIR      32  25  74 CALM      29.45F
$$
MNZ012-019>021-037-191500-
   Northeast Minnesota

CITY           SKY/WX    TMP DP  RH WIND       PRES   REMARKS
DULUTH         FAIR      30  25  81 SW12      29.48F WCI  20
ELY            FAIR      30  25  80 SW7       29.42F WCI  23
HIBBING        FAIR      26  23  88 CALM      29.45F
EVELETH        FAIR      26  21  81 SW3       29.46F
DULUTH HARBOR  FAIR      30  27  86 SW12      29.53F WCI  21
TWO HARBORS    FAIR      28  25  86 SW6       29.47F WCI  22
SILVER BAY     FAIR      27  25  93 CALM      29.45F
GRAND MARAIS     N/A     32  28  85 W7        29.47F WCI  26
G MARAIS ARPRT MOCLDY    25  21  86 SW6       29.42S FOG     WCI  18
$$
MNZ029>031-032-039>041-046>048-054>057-064-191500-
   West Central Minnesota

CITY           SKY/WX    TMP DP  RH WIND       PRES   REMARKS
FERGUS FALLS   FAIR      30  25  80 CALM      29.50F
WHEATON        FAIR      27  23  86 CALM      29.52F
MORRIS         FAIR      28  25  86 SE9       29.49F WCI  20
ALEXANDRIA     FAIR      34  25  69 S8        29.50F WCI  27
ELBOW LAKE     FAIR      28  25  87 S7        29.51F WCI  21
WADENA         FAIR      28  23  80 W3        29.49F
GLENWOOD       FAIR      30  27  86 SW8       29.52S WCI  23
APPLETON       FAIR      30  27  86 E5        29.52F WCI  25
BENSON         FAIR      30  27  86 S9        29.53F WCI  22
ORTONVILLE     FAIR      30  25  80 SE7       29.49F WCI  23
MADISON        FAIR      36  28  75 S5        29.51F
WILLMAR        FAIR      28  27  93 E3        29.57F
$$
MNZ033>034-036-042>043-049>051-058-059-191500-
   Central Minnesota

CITY           SKY/WX    TMP DP  RH WIND       PRES   REMARKS
ST CLOUD       FAIR      30  26  85 SE5       29.54F WCI  25
SAUK CENTRE      N/A     29  25  83 S6        29.52F WCI  23
PAYNESVILLE    FAIR      33  29  84 S5        29.54F WCI  29
AITKIN         FAIR      27  23  86 CALM      29.48F
PINE RIVER     FAIR      25  21  86 CALM      29.53S
BRAINERD       FAIR      29  24  82 S5        29.50F WCI  24
STAPLES        FAIR      25  21  86 CALM      29.49F
LONG PRAIRIE   FAIR      27  23  86 S6        29.51S WCI  20
LITTLE FALLS   FAIR      30  21  69 S5        29.52  WCI  25
LITCHFIELD     FAIR      32  28  86 CALM      29.56F
BUFFALO        FAIR      31  26  83 S6        29.58F WCI  25
MAPLE LAKE     FAIR      31  28  88 MISG      29.57F
HUTCHINSON     FAIR      30  28  90 SE3       29.58S
$$
MNZ037-044-045-052-053-191500-
   East Central Minnesota

CITY           SKY/WX    TMP DP  RH WIND       PRES   REMARKS
PRINCETON      FAIR      32  28  86 S6        29.55F WCI  26
MORA           FAIR      28  25  86 S3        29.55F
CAMBRIDGE      FAIR      34  27  75 S8        29.55F WCI  27
RUSH CITY      FAIR      30  26  86 S10       29.55F WCI  21
MOOSE LAKE     FAIR      28  27  93 CALM      29.52F
HINCKLEY       FAIR      30  28  93 S6        29.54S WCI  24
CLOQUET        FAIR      28  25  86 S8        29.50F WCI  20
MCGREGOR       FAIR      32  27  80 S6        29.50F WCI  26
$$
MNZ071>073-080-081-089-090-097-098-191500-
   Southwest Minnesota

CITY           SKY/WX    TMP DP  RH WIND       PRES   REMARKS
MONTEVIDEO     FAIR      28  27  93 CALM      29.53F
GRANITE FALLS  FAIR      34  28  80 SE7       29.54F WCI  27
CANBY          FAIR      40  28  62 SW8       29.53R
MARSHALL       FAIR      35  27  72 SW16      29.52F WCI  25
REDWOOD FALLS  FAIR      31  26  82 S12       29.54F WCI  22
OLIVIA         FAIR      30  27  86 SE7       29.54F WCI  23
PIPESTONE      FAIR      28  25  86 SW6       29.55S WCI  22
WINDOM         FAIR      30  16  55 S7        29.59F WCI  23
WORTHINGTON    FAIR      31  26  82 S12       29.58F WCI  22
JACKSON        FAIR      30  25  80 S14       29.60F WCI  20
SLAYTON        FAIR      31  27  85 S8        29.58S WCI  23
$$
MNZ065>067-074>077-082>085-091>093-191500-
   South Central Minnesota

CITY           SKY/WX    TMP DP  RH WIND       PRES   REMARKS
MANKATO        FAIR      27  23  85 S13       29.62S WCI  16
NEW ULM        FAIR      28  25  86 S9        29.58S WCI  20
ST JAMES       FAIR      30  27  86 S10       29.61S WCI  21
FAIRMONT       FAIR      27  23  85 S12       29.62F WCI  17
FARIBAULT      FAIR      28  23  80 S9        29.63S WCI  20
OWATONNA       FAIR      28  25  86 SE9       29.63S WCI  20
WASECA         FAIR      30  25  80 S9        29.63F WCI  22
ALBERT LEA     FAIR      28  21  74 S8        29.64F WCI  20
$$
MNZ078>079-086>088-094>096-191500-
   Southeast Minnesota

CITY           SKY/WX    TMP DP  RH WIND       PRES   REMARKS
ROCHESTER      FAIR      26  22  84 S13       29.65F WCI  15
RED WING       FAIR      28  21  74 SE8       29.63F WCI  20
STANTON        FAIR      31  24  77 S6        29.61S WCI  25
DODGE CENTER   FAIR      27  21  80 S13       29.64S WCI  16
WINONA         FAIR      30  25  80 SE6       29.68F WCI  24
AUSTIN         FAIR      25  19  80 S9        29.67S WCI  15
PRESTON        FAIR      26  21  82 S12       29.68S WCI  15
$$
ABBREVIATIONS USED IN REMARKS
   TC - TEMPERATURES IN CELSIUS
  WCI - WIND CHILL INDEX
   HX - HEAT INDEX
  VSB - VISIBILITY
$$




USA.gov is the U.S. government's official web portal to all federal, state and local government web resources and services.